"startDT [UTC]","vpos","CH4 [ppm]","stdev(CH4) [ppm]","CO2 [ppm]","stdev(CO2) [ppm]","H2O_reported [%]","stdev(H2O_reported)","CavityPressure [torr]","CavityTemp [C]","OutletValve","CH4_dry [ppm]","CO2_dry [ppm]","DasTemp [C]","EtalonTemp [C]","WarmBoxTemp [C]","MPVPosition","T_ECpre [C]","T_EC1 [C]","T_EC2 [C]","p_inlet [hPa]","p_in [hPa]","p_out [hPa]","T_inlet [C]","RH_inlet [%]","dwpt_inlet [C]","T_vent [C]","RH_vent [%]","dwpt_vent [C]","flow_vent [l min-1]","flow_inlet [l min-1]","dwpt_sample [C]","T_room [C]"
2015-03-03 00:00:00,0.0,1.94327,0.00041,405.815,0.033,0.0644,0.0018,140.002,45.000,34292.98811,1.94450,406.129,34.843,45.067,44.999,0.00,0.09,-272.69,-272.75,-1,970,-3,21.4,2.0,-29.8,21.7,2.1,-29.4,5.73,1.99,-19.9,27.8
2015-03-03 00:01:00,0.0,1.94361,0.00032,405.841,0.032,0.0645,0.0018,140.002,45.000,34290.15826,1.94484,406.154,34.831,45.067,44.999,0.00,0.09,-272.70,-272.76,-2,969,-3,21.4,2.0,-29.7,21.7,2.1,-29.3,5.73,2.01,-19.9,27.8
2015-03-03 00:02:00,0.0,1.94399,0.00041,405.858,0.032,0.0644,0.0012,139.997,45.000,34287.83468,1.94520,406.172,34.817,45.067,44.999,0.00,0.09,-272.70,-272.76,-1,970,-3,21.4,2.1,-29.7,21.7,2.1,-29.3,5.73,2.00,-19.9,27.9
2015-03-03 00:03:00,0.0,1.94377,0.00035,405.838,0.027,0.0649,0.0014,140.001,45.000,34290.01559,1.94502,406.155,34.823,45.067,45.000,0.00,0.09,-272.70,-272.75,-2,969,-3,21.4,2.1,-29.6,21.7,2.1,-29.2,5.73,2.01,-19.9,27.9
2015-03-03 00:04:00,0.0,1.94403,0.00036,405.850,0.031,0.0654,0.0016,140.001,45.000,34292.36961,1.94529,406.169,34.815,45.067,45.000,0.00,0.09,-272.69,-272.75,-2,970,-3,21.4,2.0,-29.7,21.7,2.1,-29.2,5.73,2.01,-19.9,27.8
2015-03-03 00:05:00,0.0,1.94372,0.00031,405.829,0.027,0.0652,0.0014,140.003,45.000,34293.61899,1.94498,406.147,34.813,45.067,45.000,0.00,0.09,-272.70,-272.76,-2,969,-3,21.4,2.0,-29.7,21.7,2.1,-29.2,5.73,2.01,-19.9,27.8
2015-03-03 00:06:00,0.0,1.94358,0.00029,405.823,0.027,0.0653,0.0015,139.999,45.000,34293.70245,1.94482,406.141,34.815,45.067,45.000,0.00,0.09,-272.70,-272.76,-2,970,-3,21.4,2.1,-29.5,21.7,2.1,-29.2,5.73,2.00,-19.9,27.7
2015-03-03 00:07:00,0.0,1.94367,0.00037,405.817,0.028,0.0650,0.0015,140.003,45.000,34294.97302,1.94491,406.135,34.813,45.067,45.000,0.00,0.09,-272.70,-272.75,-1,969,-3,21.4,2.1,-29.5,21.7,2.1,-29.2,5.73,2.01,-19.9,27.8
2015-03-03 00:08:00,0.0,1.94366,0.00030,405.834,0.037,0.0657,0.0024,140.001,45.000,34293.58189,1.94490,406.153,34.803,45.067,45.000,0.00,0.09,-272.70,-272.75,-1,970,-4,21.4,2.1,-29.5,21.7,2.1,-29.1,5.73,1.99,-19.9,27.8
2015-03-03 00:09:00,0.0,1.94372,0.00033,405.827,0.032,0.0654,0.0021,140.002,45.000,34293.10947,1.94498,406.147,34.767,45.067,45.000,0.00,0.09,-272.70,-272.76,-2,970,-3,21.4,2.1,-29.5,21.7,2.1,-29.1,5.73,1.99,-19.9,27.9
2015-03-03 00:10:00,0.0,1.94371,0.00039,405.834,0.026,0.0649,0.0014,139.999,45.000,34291.69135,1.94495,406.150,34.769,45.068,45.000,0.00,0.09,-272.70,-272.75,-1,970,-3,21.4,2.1,-29.5,21.7,2.1,-29.2,5.73,1.99,-19.9,27.8
2015-03-03 00:11:00,0.0,1.94394,0.00038,405.847,0.036,0.0653,0.0013,140.002,45.000,34291.94722,1.94519,406.166,34.813,45.068,45.000,0.00,0.09,-272.69,-272.76,-2,969,-4,21.4,2.1,-29.5,21.7,2.1,-29.2,5.73,1.98,-19.9,27.8
2015-03-03 00:12:00,0.0,1.94396,0.00031,405.848,0.035,0.0658,0.0021,139.999,45.000,34291.40618,1.94520,406.169,34.814,45.067,45.000,0.00,0.09,-272.70,-272.76,-1,969,-3,21.4,2.1,-29.6,21.7,2.1,-29.2,5.73,1.97,-19.9,27.8
2015-03-03 00:13:00,0.0,1.94421,0.00030,405.850,0.029,0.0657,0.0019,140.000,45.000,34289.01138,1.94547,406.171,34.812,45.067,45.000,0.00,0.09,-272.69,-272.75,-2,969,-3,21.4,2.1,-29.6,21.7,2.1,-29.3,5.73,1.97,-19.9,27.8
2015-03-03 00:14:00,0.0,1.94364,0.00044,405.830,0.040,0.0643,0.0021,139.997,45.000,34288.22180,1.94491,406.145,34.803,45.067,45.000,0.00,0.09,-272.69,-272.75,-1,969,-3,21.4,2.1,-29.7,21.7,2.1,-29.3,5.73,1.97,-19.9,27.9
2015-03-03 00:15:00,0.0,1.94305,0.00035,405.780,0.026,0.0639,0.0017,140.001,45.000,34289.40591,1.94427,406.094,34.780,45.067,45.000,0.00,0.09,-272.70,-272.76,-2,970,-3,21.4,2.0,-29.7,21.7,2.1,-29.3,5.73,1.98,-19.9,27.9
2015-03-03 00:16:00,0.0,1.94270,0.00040,405.731,0.039,0.0647,0.0013,140.002,45.000,34292.98878,1.94396,406.049,34.775,45.067,45.000,0.00,0.09,-272.70,-272.76,-1,970,-3,21.4,2.0,-29.7,21.7,2.1,-29.3,5.73,1.98,-19.9,27.8
2015-03-03 00:17:00,0.0,1.94226,0.00032,405.707,0.032,0.0642,0.0015,139.997,45.000,34293.16043,1.94350,406.020,34.754,45.067,45.000,0.00,0.09,-272.69,-272.76,-2,970,-3,21.4,2.0,-29.8,21.7,2.1,-29.3,5.73,1.98,-19.9,27.8
2015-03-03 00:18:00,0.0,1.94260,0.00042,405.714,0.034,0.0639,0.0016,140.002,45.000,34292.86320,1.94382,406.026,34.749,45.068,45.000,0.00,0.09,-272.70,-272.76,-1,969,-3,21.4,2.0,-29.9,21.7,2.0,-29.4,5.73,1.99,-19.9,27.8
2015-03-03 00:19:00,0.0,1.94227,0.00030,405.725,0.034,0.0640,0.0016,140.001,45.000,34293.05962,1.94349,406.036,34.740,45.068,45.000,0.00,0.09,-272.70,-272.76,-2,970,-4,21.4,2.0,-29.8,21.7,2.0,-29.5,5.73,2.00,-19.9,27.8
2015-03-03 00:20:00,0.0,1.94209,0.00051,405.717,0.040,0.0652,0.0025,140.003,45.000,34293.14326,1.94335,406.037,34.748,45.068,45.001,0.00,0.09,-272.70,-272.75,-1,969,-3,21.4,2.0,-29.7,21.7,2.1,-29.3,5.73,2.00,-19.9,27.9
2015-03-03 00:21:00,0.0,1.94302,0.00085,405.745,0.056,0.0664,0.0020,139.999,45.000,34288.50156,1.94421,406.065,34.752,45.068,45.000,0.00,0.09,-272.70,-272.75,-2,970,-4,21.4,2.1,-29.4,21.7,2.1,-29.1,5.73,2.00,-19.9,27.8
2015-03-03 00:22:00,0.0,1.94394,0.00044,405.849,0.030,0.0683,0.0017,139.998,45.000,34290.55777,1.94519,406.183,34.750,45.068,45.000,0.00,0.09,-272.70,-272.76,-1,969,-4,21.4,2.1,-29.2,21.7,2.2,-28.9,5.73,2.01,-19.9,27.8
2015-03-03 00:23:00,0.0,1.94431,0.00043,405.893,0.038,0.0687,0.0020,140.000,45.000,34290.57193,1.94567,406.228,34.749,45.067,45.000,0.00,0.09,-272.70,-272.76,-2,970,-3,21.4,2.2,-29.2,21.7,2.2,-28.8,5.73,2.01,-19.9,27.8
2015-03-03 00:24:00,0.0,1.94398,0.00039,405.879,0.038,0.0672,0.0019,140.001,45.000,34290.83620,1.94530,406.208,34.749,45.067,45.000,0.00,0.09,-272.70,-272.75,-2,969,-3,21.4,2.2,-29.1,21.7,2.2,-28.8,5.73,2.01,-19.9,27.8
2015-03-03 00:25:00,0.0,1.94403,0.00038,405.873,0.028,0.0668,0.0020,139.999,45.000,34292.73812,1.94529,406.198,34.750,45.067,45.000,0.00,0.09,-272.70,-272.76,-2,969,-3,21.4,2.1,-29.2,21.7,2.2,-28.8,5.73,2.00,-19.9,27.8
2015-03-03 00:26:00,0.0,1.94427,0.00041,405.909,0.031,0.0661,0.0019,139.999,45.000,34290.14032,1.94550,406.233,34.764,45.067,45.000,0.00,0.09,-272.70,-272.76,-1,969,-3,21.4,2.1,-29.3,21.7,2.2,-28.9,5.73,1.99,-19.9,27.9
2015-03-03 00:27:00,0.0,1.94430,0.00039,405.859,0.032,0.0663,0.0017,139.999,45.000,34290.18513,1.94559,406.183,34.806,45.067,45.000,0.00,0.09,-272.69,-272.75,-2,970,-3,21.4,2.1,-29.4,21.7,2.1,-29.0,5.73,1.99,-19.9,27.8
2015-03-03 00:28:00,0.0,1.94358,0.00051,405.820,0.022,0.0664,0.0017,140.000,45.000,34290.20484,1.94488,406.144,34.821,45.067,45.000,0.00,0.09,-272.70,-272.76,-2,969,-3,21.4,2.1,-29.3,21.7,2.2,-28.9,5.73,1.98,-19.9,27.8
2015-03-03 00:29:00,0.0,1.94352,0.00059,405.787,0.039,0.0686,0.0016,140.000,45.000,34291.36454,1.94481,406.120,34.827,45.067,44.999,0.00,0.09,-272.70,-272.76,-2,970,-3,21.4,2.1,-29.2,21.7,2.2,-28.8,5.73,1.97,-19.9,27.8
2015-03-03 00:30:00,0.0,1.94314,0.00066,405.802,0.059,0.0683,0.0014,139.997,45.000,34291.44454,1.94449,406.138,34.856,45.067,45.000,0.00,0.09,-272.70,-272.76,-1,969,-3,21.4,2.2,-29.1,21.7,2.2,-28.7,5.73,1.97,-19.9,27.8
2015-03-03 00:31:00,0.0,1.94344,0.00049,405.791,0.030,0.0684,0.0018,139.999,45.000,34291.46424,1.94470,406.124,34.847,45.067,44.999,0.00,0.09,-272.70,-272.76,-2,969,-4,21.4,2.2,-29.1,21.7,2.2,-28.7,5.73,1.97,-19.9,27.9
2015-03-03 00:32:00,0.0,1.94375,0.00038,405.832,0.041,0.0692,0.0020,139.998,45.000,34292.50548,1.94508,406.169,34.815,45.067,44.999,0.00,0.09,-272.70,-272.76,-1,970,-4,21.4,2.2,-29.0,21.7,2.2,-28.7,5.73,1.97,-19.9,27.9
2015-03-03 00:33:00,0.0,1.94408,0.00029,405.857,0.037,0.0690,0.0015,140.000,45.000,34294.96208,1.94539,406.194,34.803,45.067,45.000,0.00,0.09,-272.69,-272.75,-2,970,-3,21.4,2.2,-29.0,21.7,2.2,-28.7,5.73,1.98,-19.9,27.9
2015-03-03 00:34:00,0.0,1.94403,0.00033,405.869,0.034,0.0689,0.0014,139.999,45.000,34292.60200,1.94535,406.204,34.797,45.067,45.000,0.00,0.09,-272.69,-272.75,-2,969,-3,21.4,2.2,-29.0,21.7,2.2,-28.7,5.73,1.98,-19.9,27.8
2015-03-03 00:35:00,0.0,1.94389,0.00029,405.868,0.032,0.0694,0.0022,140.001,45.000,34292.70337,1.94520,406.208,34.769,45.067,45.000,0.00,0.09,-272.70,-272.75,-2,969,-4,21.4,2.2,-28.9,21.7,2.2,-28.7,5.73,1.99,-19.9,27.8
2015-03-03 00:36:00,0.0,1.94402,0.00031,405.878,0.038,0.0695,0.0014,140.002,45.000,34291.07991,1.94536,406.218,34.750,45.068,45.000,0.00,0.09,-272.70,-272.76,-1,969,-4,21.4,2.2,-29.0,21.7,2.2,-28.6,5.73,1.99,-19.9,27.9
2015-03-03 00:37:00,0.0,1.94416,0.00025,405.876,0.026,0.0697,0.0019,139.999,45.000,34293.40270,1.94549,406.216,34.751,45.068,45.001,0.00,0.09,-272.70,-272.75,-2,970,-4,21.4,2.2,-28.9,21.7,2.2,-28.6,5.73,2.01,-19.9,27.9
2015-03-03 00:38:00,0.0,1.94418,0.00036,405.887,0.036,0.0701,0.0018,140.002,45.000,34291.32045,1.94553,406.227,34.751,45.068,45.001,0.00,0.09,-272.70,-272.76,-1,970,-4,21.4,2.2,-28.9,21.7,2.2,-28.5,5.73,2.00,-19.9,27.9
2015-03-03 00:39:00,0.0,1.94430,0.00030,405.881,0.025,0.0688,0.0015,139.998,45.000,34291.78171,1.94562,406.219,34.747,45.068,45.001,0.00,0.09,-272.70,-272.76,-2,970,-4,21.4,2.2,-29.0,21.7,2.2,-28.6,5.73,2.02,-19.9,27.8
2015-03-03 00:40:00,0.0,1.94420,0.00025,405.872,0.032,0.0697,0.0017,140.001,45.000,34291.32389,1.94553,406.212,34.742,45.068,45.000,0.00,0.09,-272.70,-272.75,-2,969,-4,21.4,2.2,-29.0,21.7,2.2,-28.6,5.73,2.00,-19.9,27.8
2015-03-03 00:41:00,0.0,1.94417,0.00035,405.869,0.044,0.0687,0.0020,140.000,45.000,34291.75555,1.94550,406.205,34.728,45.068,45.000,0.00,0.09,-272.69,-272.75,-2,969,-4,21.4,2.2,-29.0,21.7,2.2,-28.6,5.73,2.01,-19.9,27.8
2015-03-03 00:42:00,0.0,1.94372,0.00045,405.831,0.043,0.0697,0.0021,140.001,45.000,34293.14378,1.94506,406.170,34.743,45.068,45.000,0.00,0.09,-272.70,-272.76,-2,969,-4,21.4,2.2,-29.0,21.7,2.2,-28.6,5.73,2.00,-19.9,27.9
2015-03-03 00:43:00,0.0,1.94230,0.00058,405.733,0.052,0.0700,0.0018,139.999,45.000,34293.84801,1.94368,406.077,34.749,45.068,45.000,0.00,0.09,-272.70,-272.76,-2,970,-4,21.4,2.2,-28.8,21.7,2.2,-28.5,5.73,1.99,-19.9,27.9
2015-03-03 00:44:00,0.0,1.94336,0.00067,405.768,0.052,0.0711,0.0016,139.997,45.000,34291.67582,1.94465,406.113,34.787,45.067,45.000,0.00,0.09,-272.69,-272.75,-1,970,-3,21.4,2.2,-28.7,21.8,2.3,-28.3,5.73,1.98,-19.9,27.9
2015-03-03 00:45:00,0.0,1.94322,0.00046,405.782,0.044,0.0713,0.0013,139.999,45.000,34293.76298,1.94463,406.131,34.815,45.067,45.000,0.00,0.09,-272.70,-272.76,-2,969,-4,21.4,2.2,-28.7,21.7,2.3,-28.4,5.73,1.98,-19.9,27.9
2015-03-03 00:46:00,0.0,1.94294,0.00036,405.745,0.040,0.0712,0.0022,139.997,45.000,34291.40378,1.94428,406.092,34.834,45.067,45.000,0.00,0.09,-272.71,-272.75,-1,970,-4,21.4,2.2,-28.7,21.7,2.3,-28.4,5.73,1.96,-19.9,27.9
2015-03-03 00:47:00,0.0,1.94351,0.00038,405.812,0.027,0.0711,0.0019,140.001,45.000,34289.50490,1.94487,406.158,34.839,45.067,44.999,0.00,0.09,-272.70,-272.75,-2,969,-3,21.4,2.2,-28.7,21.7,2.3,-28.3,5.73,1.97,-19.9,27.9
2015-03-03 00:48:00,0.0,1.94322,0.00044,405.781,0.041,0.0725,0.0016,139.999,45.000,34288.98453,1.94459,406.135,34.826,45.067,45.000,0.00,0.09,-272.70,-272.76,-2,970,-4,21.4,2.3,-28.6,21.7,2.3,-28.3,5.73,1.96,-19.9,27.9
2015-03-03 00:49:00,0.0,1.94359,0.00048,405.796,0.029,0.0721,0.0015,140.002,45.000,34291.13741,1.94498,406.147,34.817,45.067,45.000,0.00,0.09,-272.70,-272.76,-2,969,-3,21.4,2.3,-28.5,21.8,2.3,-28.2,5.73,1.97,-19.9,27.9
2015-03-03 00:50:00,0.0,1.94377,0.00032,405.804,0.034,0.0723,0.0017,139.998,45.001,34290.56512,1.94516,406.157,34.816,45.067,45.000,0.00,0.09,-272.69,-272.75,-1,970,-3,21.5,2.3,-28.5,21.8,2.3,-28.2,5.73,1.97,-19.9,27.9
2015-03-03 00:51:00,0.0,1.94361,0.00030,405.815,0.033,0.0714,0.0015,140.000,45.000,34291.52012,1.94494,406.164,34.813,45.067,45.000,0.00,0.09,-272.69,-272.75,-2,969,-3,21.5,2.3,-28.6,21.8,2.3,-28.2,5.73,1.99,-19.9,27.8
2015-03-03 00:52:00,0.0,1.94408,0.00028,405.838,0.028,0.0719,0.0016,139.998,45.000,34287.26314,1.94548,406.188,34.807,45.067,45.000,0.00,0.09,-272.70,-272.76,-2,970,-4,21.5,2.2,-28.7,21.8,2.3,-28.3,5.73,1.99,-19.9,27.9
2015-03-03 00:53:00,0.0,1.94388,0.00039,405.865,0.039,0.0709,0.0012,140.003,45.000,34289.52835,1.94523,406.210,34.795,45.067,45.000,0.00,0.09,-272.70,-272.76,-2,969,-3,21.5,2.2,-28.7,21.8,2.3,-28.3,5.73,2.00,-19.9,27.9
2015-03-03 00:54:00,0.0,1.94414,0.00034,405.858,0.029,0.0701,0.0016,140.004,45.000,34288.56222,1.94547,406.200,34.806,45.067,45.000,0.00,0.09,-272.69,-272.75,-2,970,-3,21.5,2.2,-28.7,21.7,2.3,-28.4,5.73,2.01,-19.9,27.9
2015-03-03 00:55:00,0.0,1.94410,0.00031,405.851,0.033,0.0714,0.0012,139.997,45.000,34288.72797,1.94547,406.199,34.804,45.067,45.000,0.00,0.09,-272.70,-272.76,-2,969,-4,21.5,2.2,-28.7,21.7,2.3,-28.4,5.73,2.01,-19.9,27.9
2015-03-03 00:56:00,0.0,1.94411,0.00027,405.857,0.026,0.0715,0.0020,140.001,45.000,34288.67702,1.94547,406.205,34.774,45.068,45.000,0.00,0.09,-272.70,-272.76,-2,971,-3,21.5,2.2,-28.7,21.8,2.3,-28.3,5.73,2.01,-19.9,27.8
2015-03-03 00:57:00,0.0,1.94328,0.00077,405.803,0.071,0.0720,0.0020,139.999,45.000,34286.69611,1.94472,406.157,34.758,45.068,45.000,0.00,0.09,-272.69,-272.76,-2,969,-3,21.5,2.3,-28.6,21.8,2.3,-28.3,5.73,2.01,-20.0,27.8
2015-03-03 00:58:00,0.0,1.94295,0.00043,405.759,0.037,0.0730,0.0018,139.996,45.000,34289.16271,1.94433,406.115,34.761,45.068,45.001,0.00,0.09,-272.70,-272.76,-2,970,-3,21.4,2.3,-28.6,21.8,2.3,-28.2,5.73,2.00,-19.9,27.9
2015-03-03 00:59:00,0.0,1.94290,0.00045,405.754,0.034,0.0728,0.0019,139.998,45.000,34287.70529,1.94429,406.108,34.806,45.068,45.000,0.00,0.09,-272.70,-272.76,-1,968,-4,21.5,2.3,-28.4,21.8,2.3,-28.2,5.73,2.00,-19.9,27.9
2015-03-03 01:00:00,0.0,1.94281,0.00041,405.743,0.027,0.0724,0.0017,140.001,45.000,34287.62366,1.94421,406.097,34.819,45.068,45.000,0.00,0.09,-272.70,-272.75,-2,970,-3,21.5,2.3,-28.4,21.8,2.3,-28.0,5.73,1.99,-19.9,27.9
2015-03-03 01:01:00,0.0,1.94296,0.00036,405.765,0.037,0.0726,0.0017,140.000,45.000,34289.92920,1.94434,406.117,34.824,45.067,45.000,0.00,0.09,-272.69,-272.75,-1,969,-4,21.5,2.3,-28.3,21.8,2.3,-28.1,5.73,1.98,-19.9,27.9
2015-03-03 01:02:00,0.0,1.94331,0.00039,405.806,0.025,0.0730,0.0014,139.999,45.000,34292.81888,1.94468,406.163,34.815,45.067,45.000,0.00,0.09,-272.70,-272.76,-2,971,-3,21.5,2.3,-28.4,21.8,2.3,-28.1,5.73,1.97,-19.9,27.9
2015-03-03 01:03:00,0.0,1.94351,0.00040,405.815,0.037,0.0725,0.0019,139.999,45.000,34291.50770,1.94491,406.169,34.814,45.067,45.000,0.00,0.09,-272.70,-272.76,-1,969,-4,21.5,2.3,-28.6,21.8,2.3,-28.2,5.73,1.96,-19.9,27.9
2015-03-03 01:04:00,0.0,1.94367,0.00028,405.852,0.030,0.0722,0.0016,139.996,45.000,34290.84174,1.94504,406.205,34.804,45.067,45.000,0.00,0.09,-272.69,-272.75,-2,970,-4,21.5,2.3,-28.5,21.8,2.3,-28.2,5.73,1.97,-19.9,27.9
2015-03-03 01:05:00,0.0,1.94368,0.00041,405.847,0.036,0.0710,0.0021,139.999,45.000,34291.13304,1.94505,406.193,34.799,45.067,45.000,0.00,0.09,-272.70,-272.75,-1,969,-4,21.5,2.2,-28.6,21.8,2.3,-28.2,5.73,1.97,-19.9,28.0
2015-03-03 01:06:00,0.0,1.94376,0.00026,405.837,0.024,0.0719,0.0019,139.998,45.000,34291.27623,1.94512,406.189,34.825,45.067,45.000,0.00,0.09,-272.70,-272.76,-2,970,-4,21.5,2.2,-28.7,21.8,2.3,-28.4,5.73,1.97,-19.9,27.9
2015-03-03 01:07:00,0.0,1.94365,0.00034,405.826,0.038,0.0721,0.0012,139.999,45.000,34292.82473,1.94507,406.179,34.849,45.067,45.000,0.00,0.09,-272.70,-272.76,-1,969,-4,21.5,2.2,-28.6,21.8,2.3,-28.3,5.73,1.98,-19.9,27.9
2015-03-03 01:08:00,0.0,1.94340,0.00031,405.796,0.032,0.0713,0.0014,139.999,45.000,34294.49989,1.94475,406.144,34.864,45.067,45.000,0.00,0.09,-272.69,-272.75,-2,970,-4,21.5,2.2,-28.7,21.8,2.3,-28.3,5.73,1.99,-19.9,27.8
2015-03-03 01:09:00,0.0,1.94355,0.00037,405.790,0.019,0.0709,0.0018,139.998,45.000,34291.47879,1.94492,406.137,34.864,45.067,45.000,0.00,0.09,-272.70,-272.76,-1,969,-4,21.5,2.2,-28.8,21.8,2.3,-28.4,5.73,2.00,-19.9,27.9
2015-03-03 01:10:00,0.0,1.94339,0.00035,405.788,0.027,0.0709,0.0018,140.001,45.000,34294.75528,1.94471,406.134,34.834,45.067,45.000,0.00,0.09,-272.70,-272.76,-2,970,-4,21.5,2.2,-28.8,21.8,2.2,-28.4,5.73,2.02,-19.9,27.9
2015-03-03 01:11:00,0.0,1.94345,0.00037,405.809,0.029,0.0705,0.0023,139.999,45.000,34294.81382,1.94482,406.153,34.841,45.067,45.000,0.00,0.09,-272.70,-272.76,-1,969,-4,21.5,2.2,-28.8,21.8,2.2,-28.4,5.73,2.01,-19.9,28.0
2015-03-03 01:12:00,0.0,1.94338,0.00035,405.806,0.031,0.0710,0.0014,140.003,45.000,34294.95057,1.94472,406.153,34.876,45.067,45.000,0.00,0.09,-272.70,-272.75,-2,970,-4,21.5,2.2,-28.8,21.8,2.2,-28.4,5.73,2.01,-19.9,27.9
2015-03-03 01:13:00,0.0,1.94324,0.00033,405.789,0.037,0.0701,0.0019,139.997,45.000,34292.78611,1.94461,406.130,34.887,45.067,45.000,0.00,0.09,-272.70,-272.76,-1,969,-4,21.5,2.2,-28.7,21.8,2.2,-28.4,5.73,2.01,-19.9,27.9
2015-03-03 01:14:00,0.0,1.94313,0.00040,405.783,0.033,0.0713,0.0017,139.999,45.000,34294.41072,1.94451,406.131,34.926,45.067,45.000,0.00,0.09,-272.70,-272.75,-2,969,-4,21.5,2.2,-28.7,21.8,2.3,-28.3,5.73,2.00,-19.9,27.9
2015-03-03 01:15:00,0.0,1.94325,0.00031,405.788,0.035,0.0708,0.0018,139.999,45.000,34294.40722,1.94455,406.133,34.913,45.067,45.000,0.00,0.09,-272.70,-272.75,-1,970,-4,21.5,2.2,-28.6,21.8,2.3,-28.4,5.73,1.99,-19.9,27.9
2015-03-03 01:16:00,0.0,1.94341,0.00038,405.776,0.021,0.0711,0.0016,140.000,45.000,34292.63275,1.94475,406.125,34.919,45.067,45.000,0.00,0.09,-272.70,-272.76,-2,969,-4,21.5,2.2,-28.6,21.8,2.3,-28.3,5.73,1.98,-19.9,28.0
2015-03-03 01:17:00,0.0,1.94311,0.00042,405.808,0.025,0.0707,0.0017,140.001,45.000,34295.42443,1.94450,406.152,34.911,45.067,45.000,0.00,0.09,-272.70,-272.76,-2,969,-4,21.5,2.2,-28.7,21.8,2.3,-28.3,5.73,1.97,-19.9,27.9
2015-03-03 01:18:00,0.0,1.94319,0.00044,405.784,0.035,0.0704,0.0020,140.000,45.000,34296.26020,1.94454,406.128,34.902,45.067,45.000,0.00,0.09,-272.69,-272.75,-2,969,-4,21.5,2.2,-28.7,21.9,2.2,-28.4,5.73,1.97,-19.9,27.9
2015-03-03 01:19:00,0.0,1.94336,0.00037,405.786,0.035,0.0715,0.0018,140.002,45.000,34295.99882,1.94472,406.135,34.901,45.067,45.000,0.00,0.09,-272.70,-272.76,-2,970,-4,21.5,2.2,-28.7,21.9,2.3,-28.3,5.73,1.96,-19.9,27.9
2015-03-03 01:20:00,0.0,1.94327,0.00026,405.780,0.031,0.0715,0.0022,140.002,45.000,34294.47463,1.94463,406.129,34.888,45.067,45.000,0.00,0.09,-272.70,-272.76,-2,969,-4,21.5,2.2,-28.6,21.8,2.3,-28.3,5.73,1.97,-19.9,27.9
2015-03-03 01:21:00,0.0,1.94284,0.00042,405.780,0.052,0.0722,0.0019,140.001,45.000,34297.46645,1.94421,406.134,34.875,45.067,45.000,0.00,0.09,-272.69,-272.75,-2,970,-4,21.5,2.3,-28.5,21.8,2.3,-28.2,5.73,1.97,-19.9,27.9
2015-03-03 01:22:00,0.0,1.94276,0.00035,405.775,0.038,0.0720,0.0016,139.998,45.000,34298.86464,1.94419,406.126,34.875,45.068,45.000,0.00,0.09,-272.70,-272.75,-2,969,-4,21.5,2.3,-28.5,21.8,2.3,-28.2,5.73,1.98,-19.9,28.0
2015-03-03 01:23:00,0.0,1.94253,0.00045,405.769,0.022,0.0728,0.0018,140.001,45.000,34301.04498,1.94392,406.125,34.871,45.068,45.001,0.00,0.09,-272.70,-272.76,-2,970,-4,21.5,2.3,-28.4,21.9,2.3,-28.1,5.73,1.99,-19.9,27.9
2015-03-03 01:24:00,0.0,1.94244,0.00033,405.762,0.024,0.0726,0.0015,139.998,45.000,34301.28893,1.94382,406.116,34.866,45.068,45.000,0.00,0.09,-272.69,-272.75,-1,969,-4,21.5,2.3,-28.4,21.9,2.3,-28.1,5.73,2.00,-19.9,27.9
2015-03-03 01:25:00,0.0,1.94233,0.00033,405.754,0.037,0.0721,0.0016,140.000,45.000,34305.65846,1.94373,406.108,34.855,45.068,45.000,0.00,0.09,-272.69,-272.76,-2,970,-4,21.5,2.3,-28.5,21.9,2.3,-28.1,5.73,2.01,-19.9,27.9
2015-03-03 01:26:00,0.0,1.94242,0.00035,405.758,0.030,0.0725,0.0018,139.999,45.000,34305.81116,1.94378,406.111,34.860,45.068,45.001,0.00,0.09,-272.70,-272.76,-2,969,-4,21.5,2.3,-28.5,21.9,2.3,-28.2,5.73,2.01,-19.9,27.9
2015-03-03 01:27:00,0.0,1.94251,0.00035,405.773,0.026,0.0729,0.0013,139.999,45.000,34305.14897,1.94390,406.127,34.876,45.068,45.000,0.00,0.09,-272.70,-272.75,-2,969,-4,21.5,2.3,-28.5,21.8,2.3,-28.2,5.73,2.01,-19.9,28.0
2015-03-03 01:28:00,0.0,1.94246,0.00042,405.757,0.036,0.0728,0.0016,139.999,45.000,34304.85201,1.94387,406.114,34.876,45.067,45.000,0.00,0.09,-272.69,-272.75,-2,970,-4,21.5,2.3,-28.4,21.9,2.3,-28.2,5.73,2.01,-19.9,28.0
2015-03-03 01:29:00,0.0,1.94264,0.00037,405.740,0.028,0.0733,0.0017,139.999,45.000,34303.56668,1.94401,406.097,34.891,45.067,45.000,0.00,0.09,-272.70,-272.76,-2,969,-4,21.6,2.3,-28.4,21.9,2.3,-28.0,5.73,2.00,-19.9,27.9
2015-03-03 01:30:00,0.0,1.94264,0.00040,405.755,0.031,0.0726,0.0017,140.000,45.000,34303.04292,1.94405,406.111,34.884,45.067,45.000,0.00,0.09,-272.70,-272.76,-2,970,-4,21.6,2.3,-28.3,21.9,2.3,-28.0,5.73,1.98,-19.9,27.9
2015-03-03 01:31:00,0.0,1.94263,0.00030,405.762,0.039,0.0721,0.0020,140.000,45.000,34303.83259,1.94399,406.114,34.900,45.067,45.000,0.00,0.09,-272.69,-272.75,-2,968,-4,21.5,2.3,-28.4,21.9,2.3,-28.1,5.73,1.98,-19.9,27.9
2015-03-03 01:32:00,0.0,1.94252,0.00033,405.729,0.041,0.0721,0.0017,139.999,45.000,34302.77494,1.94390,406.079,34.902,45.067,45.000,0.00,0.09,-272.69,-272.76,-2,970,-4,21.6,2.3,-28.3,21.8,2.3,-28.0,5.73,1.97,-19.9,27.9
2015-03-03 01:33:00,0.0,1.94251,0.00032,405.725,0.030,0.0725,0.0014,140.000,45.000,34302.03175,1.94390,406.080,34.908,45.067,45.000,0.00,0.09,-272.70,-272.76,-1,969,-4,21.6,2.3,-28.5,21.9,2.3,-28.1,5.73,1.96,-19.9,28.0
2015-03-03 01:34:00,0.0,1.94266,0.00047,405.754,0.034,0.0723,0.0015,140.003,45.000,34302.22531,1.94402,406.106,34.931,45.067,45.000,0.00,0.09,-272.69,-272.75,-2,969,-4,21.6,2.3,-28.5,21.9,2.3,-28.2,5.73,1.96,-19.9,28.0
2015-03-03 01:35:00,0.0,1.94252,0.00039,405.760,0.031,0.0715,0.0015,139.999,45.000,34299.50614,1.94391,406.109,34.931,45.067,45.000,0.00,0.09,-272.69,-272.75,-2,969,-4,21.6,2.3,-28.5,21.9,2.3,-28.1,5.73,1.96,-19.9,27.9
2015-03-03 01:36:00,0.0,1.94288,0.00038,405.730,0.038,0.0728,0.0016,140.001,45.000,34298.06467,1.94425,406.085,34.938,45.067,45.000,0.00,0.09,-272.70,-272.76,-2,969,-4,21.6,2.3,-28.4,21.9,2.3,-28.2,5.73,1.98,-19.9,27.9
2015-03-03 01:37:00,0.0,1.94259,0.00041,405.752,0.028,0.0730,0.0015,139.999,45.000,34299.23220,1.94403,406.108,34.943,45.067,45.000,0.00,0.09,-272.70,-272.76,-2,970,-4,21.6,2.3,-28.5,21.9,2.3,-28.1,5.73,1.99,-19.9,27.8
2015-03-03 01:38:00,0.0,1.94223,0.00034,405.710,0.028,0.0741,0.0020,140.003,45.000,34302.33748,1.94363,406.074,34.954,45.067,45.000,0.00,0.09,-272.69,-272.75,-2,968,-4,21.6,2.3,-28.5,21.9,2.3,-28.2,5.73,2.01,-19.9,27.9
2015-03-03 01:39:00,0.0,1.94226,0.00031,405.723,0.027,0.0735,0.0017,140.001,45.000,34302.42595,1.94366,406.081,34.951,45.067,45.000,0.00,0.09,-272.70,-272.76,-2,970,-4,21.6,2.3,-28.3,21.9,2.3,-28.1,5.73,2.01,-19.9,27.9
2015-03-03 01:40:00,0.0,1.94238,0.00034,405.713,0.018,0.0738,0.0014,140.000,45.000,34300.96995,1.94379,406.073,34.937,45.067,45.000,0.00,0.09,-272.70,-272.76,-1,969,-4,21.6,2.3,-28.3,21.9,2.3,-28.0,5.73,2.00,-19.9,28.0
2015-03-03 01:41:00,0.0,1.94212,0.00033,405.717,0.029,0.0738,0.0014,139.998,45.000,34300.75730,1.94357,406.077,34.894,45.067,45.000,0.00,0.09,-272.69,-272.75,-2,970,-4,21.6,2.3,-28.4,21.9,2.3,-28.0,5.73,1.98,-19.9,28.0
2015-03-03 01:42:00,0.0,1.94217,0.00044,405.663,0.035,0.0739,0.0018,140.000,44.999,34303.42136,1.94357,406.026,34.799,45.066,44.999,0.00,0.09,-272.70,-272.75,-2,970,-4,21.5,2.3,-28.4,21.9,2.3,-28.1,5.73,1.97,-19.8,27.9
2015-03-03 01:43:00,0.0,1.94208,0.00035,405.655,0.029,0.0742,0.0021,140.000,44.999,34304.49142,1.94350,406.016,34.674,45.066,44.999,0.00,0.09,-272.70,-272.76,-2,971,-4,21.5,2.3,-28.4,21.8,2.3,-28.0,5.73,1.96,-19.8,27.9
2015-03-03 01:44:00,0.0,1.94223,0.00033,405.694,0.040,0.0725,0.0016,140.002,44.998,34301.93084,1.94360,406.047,34.505,45.066,44.998,0.00,0.09,-272.70,-272.75,-2,971,-4,21.4,2.3,-28.5,21.8,2.3,-28.1,5.73,1.96,-19.8,27.8
2015-03-03 01:45:00,0.0,1.94223,0.00043,405.674,0.025,0.0726,0.0019,140.001,44.997,34299.94309,1.94364,406.028,34.326,45.065,44.998,0.00,0.09,-272.69,-272.75,-2,972,-4,21.4,2.3,-28.6,21.7,2.3,-28.2,5.73,2.00,-19.9,27.8
2015-03-03 01:46:00,0.0,1.94208,0.00035,405.683,0.040,0.0730,0.0012,140.001,44.997,34299.36761,1.94345,406.041,34.132,45.065,44.998,0.00,0.09,-272.70,-272.76,-2,973,-4,21.3,2.3,-28.6,21.7,2.3,-28.3,5.73,2.05,-19.9,27.8